TimeEDT,TemperatureF,Dew PointF,Humidity,Sea Level PressureIn,VisibilityMPH,Wind Direction,Wind SpeedMPH,Gust SpeedMPH,PrecipitationIn,Events,Conditions,WindDirDegrees,DateUTC
12:53 AM,69.1,62.1,78,30.07,10.0,Calm,Calm,-,N/A,,Mostly Cloudy,0,2013-06-01 04:53:00
1:53 AM,71.1,63.0,75,30.08,10.0,SSW,4.6,-,N/A,,Overcast,200,2013-06-01 05:53:00
2:53 AM,70.0,64.0,81,30.08,10.0,SSW,6.9,-,N/A,,Partly Cloudy,210,2013-06-01 06:53:00
3:53 AM,70.0,64.0,81,30.08,10.0,South,8.1,-,N/A,,Partly Cloudy,190,2013-06-01 07:53:00
4:53 AM,69.1,64.9,87,30.07,10.0,SSW,9.2,-,N/A,,Clear,200,2013-06-01 08:53:00
5:53 AM,68.0,64.9,90,30.08,10.0,South,6.9,-,N/A,,Clear,190,2013-06-01 09:53:00
6:53 AM,68.0,64.9,90,30.08,10.0,South,4.6,-,N/A,,Partly Cloudy,190,2013-06-01 10:53:00
7:48 AM,69.8,64.4,83,30.14,10.0,SSW,5.8,-,N/A,,Partly Cloudy,210,2013-06-01 11:48:00
7:53 AM,70.0,64.9,84,30.08,10.0,SSW,6.9,-,N/A,,Clear,200,2013-06-01 11:53:00
8:53 AM,73.9,64.9,73,30.08,10.0,SSW,8.1,-,N/A,,Clear,200,2013-06-01 12:53:00
9:53 AM,75.9,64.0,67,30.08,10.0,Variable,5.8,-,N/A,,Clear,0,2013-06-01 13:53:00
10:53 AM,77.0,63.0,62,30.07,10.0,South,9.2,-,N/A,,Partly Cloudy,190,2013-06-01 14:53:00
11:53 AM,79.0,63.0,58,30.08,10.0,SW,10.4,-,N/A,,Partly Cloudy,230,2013-06-01 15:53:00
12:53 PM,81.0,61.0,50,30.06,10.0,SSW,12.7,-,N/A,,Partly Cloudy,200,2013-06-01 16:53:00
1:53 PM,82.0,61.0,49,30.05,10.0,SSW,9.2,-,N/A,,Partly Cloudy,210,2013-06-01 17:53:00
2:53 PM,82.0,62.1,51,30.04,10.0,SSW,9.2,-,N/A,,Scattered Clouds,200,2013-06-01 18:53:00
3:53 PM,81.0,61.0,50,30.02,10.0,South,8.1,18.4,N/A,,Scattered Clouds,190,2013-06-01 19:53:00
4:53 PM,82.0,60.1,47,30.01,10.0,SSW,11.5,19.6,N/A,,Partly Cloudy,210,2013-06-01 20:53:00
5:53 PM,82.0,60.1,47,30.01,10.0,SSW,11.5,17.3,N/A,,Partly Cloudy,210,2013-06-01 21:53:00
6:53 PM,82.0,60.1,47,29.99,10.0,South,9.2,-,N/A,,Partly Cloudy,190,2013-06-01 22:53:00
7:53 PM,80.1,61.0,52,29.98,10.0,SSW,4.6,-,N/A,,Clear,200,2013-06-01 23:53:00
8:53 PM,77.0,61.0,58,29.98,10.0,South,5.8,-,N/A,,Clear,190,2013-06-02 00:53:00
9:53 PM,73.9,62.1,66,29.99,10.0,Calm,Calm,-,N/A,,Clear,0,2013-06-02 01:53:00
10:53 PM,73.0,62.1,68,30.01,10.0,SSW,4.6,-,N/A,,Partly Cloudy,200,2013-06-02 02:53:00
11:53 PM,72.0,62.1,71,30.00,10.0,SSW,3.5,-,N/A,,Scattered Clouds,200,2013-06-02 03:53:00